Flag for Italy Weather past 2 weeks in Trieste, Italy

Now
86 °F

Passing clouds.


Feels Like: 91 °F
Forecast: 72 / 92 °F
Wind: No wind

Location: Trieste

Current Time: Aug 4, 2015 at 4:07:44 PM

Latest Report: Aug 4, 2015 at 3:00 PM


Visibility: 13 mi

Pressure: 29.93 "Hg

Humidity: 60%

Dew point: 71 °F

Location of TriesteLocation

Historic Weather in Trieste — Graph

°F

Trieste temperature yesterday

Maximum temperature yesterday: 90 °F (at 5:00 PM)
Minimum temperature yesterday: 73 °F (at 7:00 AM)
Average temperature yesterday: 81 °F

Past Weeks' High & Low Weather Summary

 TemperatureHumidityPressure
High98 °F (Jul 22, 11:00 AM)96% (Jul 26, 3:00 AM)30.03 "Hg (Jul 26, 3:00 AM)
Low62 °F (Jul 31, 4:00 AM)36% (Jul 31, 4:00 PM)29.69 "Hg (Jul 27, 2:00 PM)
Average80 °F63%29.84 "Hg
* Reported Jul 20 2:00 PM — Aug 4 2:00 PM, Trieste, Weather by CustomWeather, © 2015

Note: Actual official high and low records may vary slightly from our data, if they occured in-between our weather recording intervals... More about our weather records

Advertising

Trieste weather history for previous 24 hours

 ConditionsComfort  
Time TempWeatherWind HumidityBarometerVisibility
2:00 PM
Tue, Aug 4
86 °FPassing clouds.No wind62%29.93 "Hg12 mi
1:00 PM87 °FPassing clouds.1 mph53%29.94 "Hg12 mi
12:00 PM90 °FPassing clouds.2 mph51%29.95 "Hg12 mi
11:00 AM88 °FSunny.2 mph51%29.94 "Hg12 mi
10:00 AM85 °FSunny.7 mph56%29.94 "Hg12 mi
9:00 AM82 °FSunny.8 mph60%29.95 "Hg12 mi
8:00 AM79 °FSunny.8 mph66%29.94 "Hg12 mi
7:00 AM77 °FSunny.9 mph70%29.95 "Hg12 mi
6:00 AM77 °FSunny.9 mph72%29.95 "Hg12 mi
5:00 AM77 °FClear.8 mph72%29.96 "Hg12 mi
4:00 AM76 °FClear.3 mph73%29.97 "Hg12 mi
3:00 AM78 °FClear.5 mph70%29.97 "Hg12 mi
2:00 AM79 °FClear.7 mph66%29.98 "Hg12 mi
1:00 AM80 °FClear.8 mph66%29.98 "Hg12 mi
12:00 AM80 °FClear.8 mph66%29.98 "Hg12 mi
10:00 PM
Mon, Aug 3
81 °FClear.7 mph60%29.98 "Hg12 mi
9:00 PM83 °FClear.7 mph55%29.97 "Hg12 mi
8:00 PM86 °FSunny.6 mph47%29.96 "Hg12 mi
7:00 PM89 °FPassing clouds.3 mph43%29.96 "Hg12 mi
6:00 PM89 °FScattered clouds.6 mph44%29.97 "Hg12 mi
5:00 PM90 °FScattered clouds.3 mph44%29.98 "Hg12 mi
4:00 PM89 °FScattered clouds.5 mph45%29.99 "Hg12 mi
Weather by CustomWeather, © 2015

See weather overviewHow to use our weather pages